Location: Melbourne
(37.8170°S, 144.9670°E)
Time: 16:45:54
(UTC+10:00)

Aureole 2 Rocket - Visible Passes

Search period start: 19 June 2018 00:00
Search period end: 29 June 2018 00:00
Orbit: 323 x 526 km, 73.9° (Epoch: 18 June)

Date Brightness Start Highest point End Pass type
(mag) Time Alt. Az. Time Alt. Az. Time Alt. Az.
19 Jun 5.4 19:05:48 10° W 19:07:36 13° WSW 19:09:25 10° SSW visible
20 Jun 4.3 18:20:23 10° NW 18:23:28 30° WSW 18:26:46 10° S visible
21 Jun 2.6 17:36:05 10° NNW 17:39:29 83° WSW 17:43:14 10° SSE visible
22 Jun 5.4 18:28:52 10° W 18:30:41 13° WSW 18:32:34 10° SSW visible
23 Jun 4.4 17:43:20 10° NW 17:46:28 30° WSW 17:49:50 10° S visible
25 Jun 5.4 17:51:38 10° W 17:53:32 13° WSW 17:55:28 10° SSW visible
